Home   Weather   Santa Clara   Past weeks

Flag for Cuba Past Weather in Santa Clara, Cuba — Yesterday and Last 2 Weeks

Now
95 °F

Scattered clouds.


Feels Like: 110 °F
Forecast: 74 / 92 °F
Wind: 3 mph from North

Location: Cienfuegos - Las Villas

Current Time: Jul 20, 2017 at 2:50:59 pm

Latest Report: Jul 20, 2017 at 1:54 pm


Visibility: N/A

Pressure: 30.07 "Hg

Humidity: 56%

Dew Point: 77 °F

Location of Santa ClaraLocation

Past Weather in Santa Clara — Graph

°F

Santa Clara Temperature Yesterday

Maximum temperature yesterday: 91 °F (at 12:56 pm)
Minimum temperature yesterday: 75 °F (at 5:59 am)
Average temperature yesterday: 83 °F

High & Low Weather Summary for the Past Weeks

 TemperatureHumidityPressure
High93 °F (Jul 7, 1:50 pm)100% (Jul 6, 6:59 am)30.12 "Hg (Jul 6, 6:59 am)
Low37 °F (Jul 18, 5:53 pm)53% (Jul 12, 2:50 pm)29.95 "Hg (Jul 16, 3:59 am)
Average81 °F83%30.03 "Hg
* Reported Jul 5 12:59 pm — Jul 20 12:52 pm, Santa Clara. Weather by CustomWeather, © 2017

Note: Actual official high and low records may vary slightly from our data, if they occured in-between our weather recording intervals... More about our weather records

Advertising

Santa Clara Weather History for the Previous 24 Hours

Scroll right to see more
 ConditionsComfort  
Time TempWeatherWind HumidityBarometerVisibility
12:52 pm
Thu, Jul 20
93 °FScattered clouds.7 mph56%30.09 "HgN/A
11:50 am91 °FPassing clouds.6 mph59%30.09 "HgN/A
10:59 am90 °FHot.2 mph67%30.09 "HgN/A
9:59 am86 °FWarm.1 mph70%30.09 "HgN/A
8:59 am82 °FWarm.2 mph84%30.07 "HgN/A
7:59 am77 °FWarm.2 mph94%30.07 "HgN/A
6:59 am73 °FMild.3 mph100%30.04 "HgN/A
5:59 am75 °FMild.3 mph94%30.04 "HgN/A
4:59 am75 °FMild.3 mph94%30.04 "HgN/A
3:59 am75 °FMild.3 mph94%30.04 "HgN/A
2:59 am75 °FMild.5 mph94%30.07 "HgN/A
1:59 am75 °FMild.5 mph94%30.07 "HgN/A
12:59 am75 °FMild.6 mph94%30.09 "HgN/A
11:58 pm
Wed, Jul 19
75 °FMild.7 mph94%30.09 "HgN/A
10:59 pm75 °FMild.5 mph94%30.09 "HgN/A
9:59 pm77 °FWarm.3 mph89%30.09 "HgN/A
8:59 pm81 °FWarm.9 mph84%30.07 "HgN/A
7:59 pm84 °FWarm.1 mph74%30.07 "HgN/A
6:59 pm86 °FWarm.9 mph70%30.01 "HgN/A
5:50 pm90 °FScattered clouds.9 mph67%30.01 "HgN/A
4:50 pm91 °FScattered clouds.8 mph59%30.04 "HgN/A
3:52 pm91 °FScattered clouds.8 mph63%30.04 "HgN/A
2:50 pm91 °FScattered clouds.8 mph63%30.07 "HgN/A
Weather by CustomWeather, © 2017

See weather overviewHow to use our weather pages